Showing default

GORIZONT 18, 20107

Orbit data source: Space-Track

GORIZONT 18, 20107 is a payload satellite owned by MSvyaz (CIS) in GEO that was launched on Wed, 05 Jul 1989 UTC via a PROTON-K/DM-2 launch vehicle from the Tyuratam Missile And Space Complex (TTMTR). Payload-class satellites include a variety of spacecraft equipped with specific instruments for various scientific and technological missions. These include communications satellites like Starlink; space stations such as the ISS; scientific satellites like the Hubble; Earth observation satellites from companies like Planet Labs, Umbra, and HawkEye 360; GPS; miniature CubeSats for education and research; and military/defense satellites.

Not visible in the next 10 days
Identifier
20107, 1989-052A
Orbit
GEO
Country
Flag of CISCIS
Related business
Manufacturer
NPO PM
Mission
Non-operational Civil Communications
Bus & Motor
GORIZONT, Unknown motor
Mass
2,120 kg wet, ~2,000 kg dry
Launch date (UTC)
1989-07-05 (36 years ago)
Launch vehicle
PROTON-K/DM-2
Launch site
Tyuratam Missile And Space Complex (TTMTR)
Object type
Payload
Rocket body
Debris
Shape & HBR
Cyl + 2 Pan, 4.8 m
Radar Cross Section
23.870 m², Large (>1 m²)

Expand to show TLE details & history
Last TLE update: 22 hours ago

TLE from 22 hours ago
0 GORIZONT 18
1 20107U 89052A   25348.70048269 -.00000190  00000-0  00000-0 0  9993
2 20107  12.5856 335.6926 0036801 341.1328  12.0982  0.99404942132574
Epoch: 2025-12-14T16:48Z
TLE epoch observation values (Epoch: 2025-12-14T16:48:41.704Z)
Latitude
-1.45107°
Longitude
-6.6226°
Altitude
35,879.054 km
Speed
3.077 km/s
True Right ascension
21h 56m 38s
True Declination
-1° 26' 59"
Sunlit
Object was in daylight at epoch
Visualization orbit readout
Latitude
Unknown
Longitude
Unknown
Altitude
Unknown
Speed
Unknown
Apparent Right ascension
Unknown
Apparent Declination
Unknown
Sunlit
N/A
Visualization observer readout
Local Sidereal Time
13:21:52
Azimuth
Unknown
Elevation
Unknown
Doppler factor
Unknown
Orbital elements
Apogee altitude
36,188.432 km
Perigee altitude
35,876.282 km
Semi-major axis
42,410.494 km
Eccentricity
0.00368
Inclination
12.5856°
RAAN
335.6926°
Arg. of periapsis
341.1328°
True anomaly
12.18698°
Mean anomaly
12.0982°
Eccentric anomaly
12.14255°
Mean motion
0.2485 °/min
Orbital period
1,448.67 mins
BSTAR
0
Loading maneuver chart data...
Computing Atmospheric mass density...
Loading historical data...
Loading historical data...
Loading historical data...
Loading historical data...
Loading historical data...
Loading historical data...
Loading historical data...

Documentation

Showing up to 5 results
|